TimeEST,TemperatureF,Dew PointF,Humidity,Sea Level PressureIn,VisibilityMPH,Wind Direction,Wind SpeedMPH,Gust SpeedMPH,PrecipitationIn,Events,Conditions,WindDirDegrees,DateUTC
12:53 AM,71.1,66.0,84,30.14,10.0,NE,9.2,17.3,N/A,,Clear,40,2012-11-30 05:53:00
1:53 AM,70.0,66.0,87,30.12,10.0,NE,12.7,20.7,N/A,,Mostly Cloudy,40,2012-11-30 06:53:00
2:53 AM,70.0,66.0,87,30.13,10.0,NE,11.5,18.4,N/A,,Clear,40,2012-11-30 07:53:00
3:53 AM,70.0,66.9,90,30.11,10.0,NE,11.5,20.7,N/A,,Partly Cloudy,40,2012-11-30 08:53:00
4:53 AM,70.0,66.0,87,30.11,10.0,NE,8.1,18.4,N/A,,Clear,50,2012-11-30 09:53:00
5:53 AM,70.0,66.0,87,30.11,10.0,NE,11.5,19.6,N/A,,Overcast,50,2012-11-30 10:53:00
6:53 AM,70.0,66.0,87,30.14,10.0,NE,15.0,20.7,N/A,,Overcast,40,2012-11-30 11:53:00
7:53 AM,70.0,66.9,90,30.14,10.0,NE,12.7,18.4,N/A,,Clear,50,2012-11-30 12:53:00
8:53 AM,70.0,66.0,87,30.17,10.0,NE,11.5,17.3,N/A,,Overcast,40,2012-11-30 13:53:00
9:53 AM,71.1,66.0,84,30.17,10.0,NE,9.2,20.7,N/A,,Overcast,50,2012-11-30 14:53:00
10:53 AM,73.0,66.0,79,30.17,10.0,NE,12.7,18.4,N/A,,Overcast,40,2012-11-30 15:53:00
11:53 AM,73.4,66.2,78,30.15,10.0,NE,11.5,18.4,N/A,,Clear,50,2012-11-30 16:53:00
12:53 PM,77.0,66.0,69,30.12,10.0,ENE,13.8,24.2,N/A,,Scattered Clouds,70,2012-11-30 17:53:00
1:53 PM,75.9,64.9,69,30.11,10.0,ENE,11.5,21.9,N/A,,Clear,60,2012-11-30 18:53:00
2:53 PM,73.9,64.9,73,30.09,10.0,ENE,13.8,21.9,N/A,,Clear,60,2012-11-30 19:53:00
3:53 PM,73.9,64.9,73,30.10,10.0,ENE,12.7,23.0,N/A,,Clear,60,2012-11-30 20:53:00
4:53 PM,73.9,64.0,71,30.10,10.0,ENE,13.8,23.0,N/A,,Clear,60,2012-11-30 21:53:00
5:53 PM,73.0,64.0,73,30.10,10.0,NE,12.7,18.4,N/A,,Scattered Clouds,50,2012-11-30 22:53:00
6:53 PM,73.0,64.0,73,30.11,10.0,ENE,10.4,16.1,N/A,,Clear,60,2012-11-30 23:53:00
7:53 PM,73.0,64.0,73,30.12,10.0,NE,11.5,19.6,N/A,,Clear,40,2012-12-01 00:53:00
8:53 PM,72.0,64.0,76,30.13,10.0,NE,10.4,18.4,N/A,,Clear,50,2012-12-01 01:53:00
9:53 PM,72.0,64.0,76,30.12,10.0,NE,9.2,-,N/A,,Clear,50,2012-12-01 02:53:00
10:53 PM,72.0,64.9,78,30.12,10.0,ENE,10.4,18.4,N/A,,Clear,60,2012-12-01 03:53:00
11:53 PM,71.1,64.9,81,30.12,10.0,NNE,10.4,-,N/A,,Partly Cloudy,30,2012-12-01 04:53:00